Погода в Эль-Генейне

Судан     13°26′17″N   22°26′22″E
темп.,
°C
ветер,
м/с
пор.,
м/с
влажн.,
%
обл.,
%
осадки,
мм/ч
давл.,
гПа
погр.,
м
5 марта, пт
пт523:00+21св917161 0.0 1013439
02:00+18св10171719 0.0 1013388
05:00+16св9162053 0.0 1012321
08:00+17св9142133 0.0 1014354
11:00+26св9111328 0.0 1013454
14:00+34ссв65914 0.0 10091298
17:00+34ссв4290 0.0 10072909
20:00+26ссв713141 0.0 1010200
6 марта, сб
сб623:00+23св9161358 0.0 1014393
02:00+19св8151329 0.0 1013317
05:00+17св816130 0.0 1013335
08:00+18св914120 0.0 1015359
11:00+28св81190 0.0 1014557
14:00+35св6580 0.0 10101730
17:00+35ссв5580 0.0 10082474
20:00+26ссв610120 0.0 1011121
7 марта, вс
вс723:00+23св815120 0.0 1013360
02:00+20св816110 0.0 1012331
05:00+17св8161217 0.0 1012316
08:00+18св8151247 0.0 1014432
11:00+29св811787 0.0 1013646
14:00+35св66658 0.0 10081207
17:00+34ссв54671 0.0 10061600
20:00+25ссв610880 0.0 1009117
8 марта, пн
пн823:00+22св816610 0.0 1011318
02:00+18св715715 0.0 1010260
05:00+17св7148100 0.0 1010263
08:00+19св8149100 0.0 1012357
11:00+29св810617 0.0 1011650
14:00+35св4358 0.0 10061669
17:00+35с3250 0.0 10052316
20:00+26ссв4680 0.0 100836
9 марта, вт
вт923:00+22св71370 0.0 1010228
02:00+19св71580 0.0 1010239
05:00+17св61280 0.0 1010179
08:00+20св71180 0.0 1011259
11:00+32всв6750 0.0 1010628
14:00+36ссз11512 0.0 10052320
17:00+36с11453 0.0 10043042
20:00+28ссв45727 0.0 100728